Weather reports worldwide

Advertisment
Venezia/Tessera, Italy (16105): temperature & dewpoint: 15.06.2018 23:00:00 - 21.06.2018 23:00:00 (CEST)Venezia/Tessera, Italy (16105): wind speed: 15.06.2018 23:00:00 - 21.06.2018 23:00:00 (CEST)Venezia/Tessera, Italy (16105): wind direction: 15.06.2018 23:00:00 - 21.06.2018 23:00:00 (CEST)Venezia/Tessera, Italy (16105): reduced air pressure: 15.06.2018 23:00:00 - 21.06.2018 23:00:00 (CEST)Venezia/Tessera, Italy (16105): visibility: 15.06.2018 23:00:00 - 21.06.2018 23:00:00 (CEST)Venezia/Tessera, Italy (16105): precipitation: 15.06.2018 23:00:00 - 21.06.2018 23:00:00 (CEST)
Date & Time tt [°C] td [°C] ff [km/h] ff [kn] dd ppp [hPa] vv [km] rr [mm]
21.06.2018 23:00:00 26,2 21,4 16 9 S 1011,8 10 0,0
21.06.2018 22:00:00 27,0 21,0 13 7 S - 10 -
21.06.2018 21:00:00 27,0 21,0 11 6 SSE - 10 -
21.06.2018 20:00:00 26,5 20,9 15 8 SSE 1010,8 10 -
21.06.2018 19:00:00 27,0 20,0 16 9 SSE - 10 -
21.06.2018 18:00:00 28,0 19,0 18 10 SSE - 10 -
21.06.2018 17:00:00 28,0 18,7 18 10 SSE 1012,3 10 0,0
21.06.2018 16:00:00 29,0 19,0 18 10 SE - 10 -
21.06.2018 15:00:00 29,0 19,0 16 9 SSE - 10 -
21.06.2018 14:00:00 29,6 19,2 15 8 S 1014,4 10 -
21.06.2018 13:00:00 29,0 18,0 13 7 S - 10 -
21.06.2018 12:00:00 29,0 17,0 13 7 S - 10 -
21.06.2018 11:00:00 28,3 17,8 9 5 S 1015,7 10 0,0
21.06.2018 10:00:00 27,0 18,0 5 3 - - 10 -
21.06.2018 09:00:00 25,0 18,0 8 4 WNW - 10 -
21.06.2018 08:00:00 23,9 17,0 5 3 WNW 1016,3 10 -
21.06.2018 07:00:00 22,0 17,0 9 5 WNW - 10 -
21.06.2018 06:00:00 21,0 17,0 5 3 WSW - 10 -
21.06.2018 05:00:00 22,1 15,9 5 3 W 1016,6 10 0,0
21.06.2018 04:00:00 22,0 18,0 8 4 SW - 10 -
21.06.2018 03:00:00 23,0 17,0 4 2 - - 10 -
21.06.2018 02:00:00 24,0 16,2 9 5 WNW 1017,4 10 -
21.06.2018 01:00:00 25,0 18,0 11 6 W - 10 -
21.06.2018 00:00:00 25,0 19,0 11 6 SSW - 10 -
20.06.2018 23:00:00 25,7 17,8 9 5 SSW 1018,5 10 0,0
20.06.2018 22:00:00 27,0 14,0 8 4 SW - 10 -
20.06.2018 21:00:00 27,0 17,0 8 4 SSW - 10 -
20.06.2018 20:00:00 28,7 15,3 4 2 S 1017,6 10 -
20.06.2018 19:00:00 29,0 16,0 8 4 S - 10 -
20.06.2018 18:00:00 29,0 15,0 8 4 S - 10 -
20.06.2018 17:00:00 28,7 14,8 9 5 S 1018,6 10 0,0
20.06.2018 16:00:00 29,0 15,0 11 6 SSE - 10 -
20.06.2018 15:00:00 29,0 16,0 15 8 SSE - 10 -
20.06.2018 14:00:00 28,8 15,4 16 9 SE 1020,0 10 -
20.06.2018 13:00:00 29,0 15,0 13 7 E - 10 -
20.06.2018 12:00:00 29,0 16,0 16 9 E - 10 -
20.06.2018 11:00:00 28,2 14,9 16 9 ENE 1021,1 10 0,0
20.06.2018 10:00:00 27,0 15,0 21 11 NE - 10 -
20.06.2018 09:00:00 26,0 15,0 21 11 NE - 10 -
20.06.2018 08:00:00 25,1 16,1 15 8 NE 1021,0 10 -
20.06.2018 07:00:00 22,0 15,0 15 8 NE - 10 -
20.06.2018 06:00:00 22,0 15,0 13 7 NNE - 10 -
20.06.2018 05:00:00 21,7 15,5 13 7 N 1020,2 10 0,0
20.06.2018 04:00:00 25,0 16,0 11 6 ENE - 10 -
20.06.2018 03:00:00 24,0 15,0 9 5 N - 10 -
20.06.2018 02:00:00 24,8 15,7 8 4 NNE 1020,3 10 -
20.06.2018 01:00:00 25,0 16,0 4 2 - - 10 -
20.06.2018 00:00:00 26,0 14,0 2 1 - - 10 -
19.06.2018 23:00:00 26,1 13,3 9 5 WNW 1019,5 10 0,0
19.06.2018 22:00:00 27,0 12,0 8 4 NW - 10 -
19.06.2018 21:00:00 28,0 13,0 8 4 WNW - 10 -
19.06.2018 20:00:00 29,4 12,9 9 5 W 1017,9 10 -
19.06.2018 19:00:00 29,0 13,0 11 6 SSW - 10 -
19.06.2018 18:00:00 29,0 12,0 13 7 SSW - 10 -
19.06.2018 17:00:00 29,5 12,6 13 7 S 1018,6 10 0,0
19.06.2018 16:00:00 29,0 13,0 11 6 S - 10 -
19.06.2018 15:00:00 29,0 11,0 9 5 S - 10 -
19.06.2018 14:00:00 28,5 13,8 11 6 SSE 1019,8 10 -
19.06.2018 13:00:00 28,0 13,0 9 5 SSE - 10 -
19.06.2018 12:00:00 28,0 13,0 8 4 ESE - 10 -
19.06.2018 11:00:00 26,6 11,4 8 4 ENE 1020,5 10 0,0
19.06.2018 10:00:00 26,0 16,0 8 4 NNE - 10 -
19.06.2018 09:00:00 24,0 15,0 9 5 N - 10 -
19.06.2018 08:00:00 23,1 14,6 11 6 NNE 1019,9 10 -
19.06.2018 07:00:00 22,0 14,0 11 6 NNE - 10 -
19.06.2018 06:00:00 21,0 15,0 9 5 N - 10 -
19.06.2018 05:00:00 21,0 15,8 9 5 N 1018,7 20 0,0
19.06.2018 04:00:00 22,0 16,0 8 4 N - 10 -
19.06.2018 03:00:00 23,0 16,0 13 7 NNE - 10 -
19.06.2018 02:00:00 23,2 15,8 11 6 N 1018,3 10 -
19.06.2018 01:00:00 23,0 16,0 16 9 N - 10 -
19.06.2018 00:00:00 24,0 20,0 8 4 ESE - 10 -
18.06.2018 23:00:00 24,5 18,8 9 5 E 1017,6 10 0,0
18.06.2018 22:00:00 25,0 17,0 13 7 NE - 10 -
18.06.2018 21:00:00 27,0 15,0 11 6 N - 10 -
18.06.2018 20:00:00 28,3 14,7 11 6 NW 1015,1 10 -
18.06.2018 19:00:00 30,0 11,0 8 4 S - 10 -
18.06.2018 18:00:00 30,0 10,0 9 5 S - 10 -
18.06.2018 17:00:00 29,4 14,4 9 5 SSW 1015,2 10 0,0
18.06.2018 16:00:00 29,0 15,0 8 4 S - 10 -
18.06.2018 15:00:00 28,0 14,0 8 4 S - 10 -
18.06.2018 14:00:00 29,1 14,0 5 3 - 1016,0 10 -
18.06.2018 13:00:00 27,0 15,0 13 7 WNW - 10 -
18.06.2018 12:00:00 25,0 16,0 15 8 WNW - 10 -
18.06.2018 11:00:00 22,7 15,6 16 9 NW 1016,4 10 0,0
18.06.2018 10:00:00 22,0 16,0 13 7 NNW - 10 -
18.06.2018 09:00:00 23,0 16,0 13 7 NW - 10 -
18.06.2018 08:00:00 23,9 15,1 13 7 NW 1016,0 10 -
18.06.2018 07:00:00 21,0 15,0 8 4 N - 10 -
18.06.2018 06:00:00 22,0 15,0 9 5 NNE - 10 -
18.06.2018 05:00:00 20,6 15,1 9 5 N 1014,3 - 0,0
18.06.2018 04:00:00 - - - - - - - -
18.06.2018 03:00:00 - - - - - - - -
18.06.2018 02:00:00 22,5 14,4 9 5 N 1014,4 10 -
18.06.2018 01:00:00 23,0 16,0 11 6 N - 10 -
18.06.2018 00:00:00 24,0 16,0 5 3 ESE - 10 -
17.06.2018 23:00:00 23,9 15,6 5 3 SSE 1013,9 10 0,0
17.06.2018 22:00:00 26,0 15,0 5 3 S - 10 -
17.06.2018 21:00:00 26,0 15,0 9 5 SSE - 10 -
17.06.2018 20:00:00 27,2 14,4 11 6 SSE 1012,4 10 -
17.06.2018 19:00:00 28,0 14,0 13 7 SSE - 10 -
17.06.2018 18:00:00 29,0 15,0 11 6 SSE - 10 -
17.06.2018 17:00:00 28,9 14,2 11 6 SSE 1012,6 10 0,0
17.06.2018 16:00:00 29,0 16,0 13 7 SSE - 10 -
17.06.2018 15:00:00 29,0 15,0 15 8 S - 10 -
17.06.2018 14:00:00 28,2 13,9 13 7 S 1013,7 10 -
17.06.2018 13:00:00 28,0 15,0 11 6 S - 10 -
17.06.2018 12:00:00 27,0 17,0 11 6 SSE - 10 -
17.06.2018 11:00:00 27,2 14,9 8 4 SSE 1013,8 10 0,0
17.06.2018 10:00:00 28,0 16,0 4 2 - - 10 -
17.06.2018 09:00:00 26,0 15,0 4 2 - - 10 -
17.06.2018 08:00:00 22,6 15,4 5 3 WNW 1013,4 10 -
17.06.2018 07:00:00 22,0 15,0 9 5 N - 10 -
17.06.2018 06:00:00 21,0 15,0 9 5 N - 10 -
17.06.2018 05:00:00 21,0 14,4 11 6 NNW 1012,9 10 0,0
17.06.2018 04:00:00 21,0 15,0 9 5 NNW - 10 -
17.06.2018 03:00:00 22,0 15,0 11 6 N - 10 -
17.06.2018 02:00:00 23,3 15,0 8 4 NNW 1013,1 10 -
17.06.2018 01:00:00 24,0 17,0 9 5 ESE - 10 -
17.06.2018 00:00:00 24,0 17,0 9 5 E - 10 -
16.06.2018 23:00:00 25,1 13,2 5 3 WNW 1012,4 10 0,0
16.06.2018 22:00:00 26,0 13,0 8 4 WNW - 10 -
16.06.2018 21:00:00 27,0 13,0 4 2 - - 10 -
16.06.2018 20:00:00 26,8 14,4 5 3 SSW 1011,1 10 -
16.06.2018 19:00:00 28,0 12,0 9 5 SSW - 10 -
16.06.2018 18:00:00 28,0 13,0 9 5 S - 10 -
16.06.2018 17:00:00 27,9 12,7 9 5 SSE 1011,5 10 0,0
16.06.2018 16:00:00 28,0 12,0 8 4 SE - 10 -
16.06.2018 15:00:00 28,0 11,0 9 5 SSE - 10 -
16.06.2018 14:00:00 27,3 10,8 11 6 E 1012,3 10 -
16.06.2018 13:00:00 27,0 11,0 8 4 E - 10 -
16.06.2018 12:00:00 27,0 10,0 9 5 NE - 10 -
16.06.2018 11:00:00 25,8 11,1 9 5 N 1012,9 10 0,0
16.06.2018 10:00:00 25,0 13,0 13 7 NNW - 10 -
16.06.2018 09:00:00 24,0 13,0 11 6 N - 10 -
16.06.2018 08:00:00 22,0 14,0 9 5 N 1013,0 10 -
16.06.2018 07:00:00 20,0 13,0 11 6 N - 10 -
16.06.2018 06:00:00 18,0 13,0 5 3 NNW - 10 -
16.06.2018 05:00:00 18,3 13,3 8 4 N 1012,8 10 0,0
16.06.2018 04:00:00 - - - - - - - -
16.06.2018 03:00:00 19,0 14,0 9 5 N - 10 -
16.06.2018 02:00:00 19,8 14,5 8 4 N 1013,2 20 -
16.06.2018 01:00:00 22,0 16,0 8 4 ESE - 10 -
16.06.2018 00:00:00 22,0 16,0 9 5 SE - 10 -
15.06.2018 23:00:00 23,1 15,1 11 6 E 1012,5 10 0,0

tt = temperature
td = dewpoint
ff = wind speed
dd = wind direction
ppp = reduced air pressure
vv = visibility
rr = precipitation

Next stations